Location: Unspecified
(0.0000°N, 0.0000°E)
Time: 07:28:40
(UTC+00:00)

STARLINK-1037 - Visible Passes

Search period start: 28 November 2020 00:00
Search period end: 08 December 2020 00:00
Orbit: 545 x 548 km, 53.0° (Epoch: 27 November)

Date Brightness Start Highest point End Pass type
(mag) Time Alt. Az. Time Alt. Az. Time Alt. Az.
04 Dec 5.1 18:40:01 10° NNE 18:42:32 17° NE 18:42:32 17° NE visible
05 Dec 4.6 18:32:36 10° N 18:36:01 25° NE 18:39:26 10° ESE visible
05 Dec 6.5 20:12:47 10° W 20:15:18 16° SW 20:17:51 10° SSW visible
06 Dec 4.0 18:25:28 10° NNW 18:29:18 39° NE 18:33:09 10° SE visible
06 Dec 7.1 20:08:06 10° WSW 20:08:37 10° SW 20:09:09 10° SW visible
07 Dec 3.6 18:18:31 10° NNW 18:22:34 63° NE 18:26:39 10° SE visible
